• In Kazakhstan
  • List of Countries
  • For 7 days
  • Water Temperature
  • Satellite Maps
  • Weather Map
  • News
  • Weather Widgets
  • user-avatar
    Login

    Hourly Weather Córdoba

    Today, 21 July, Sunday

    Time Temperature Precipitation Wind Pressure Humidity
    00:00 +19°C° 0 mm 5 mps 714 mmHg 81%
    01:00 +20°C° 0 mm 5 mps 713 mmHg 81%
    02:00 +20°C° 0 mm 5 mps 713 mmHg 80%
    03:00 +20°C° 0 mm 5 mps 712 mmHg 81%
    04:00 +19°C° 0 mm 4 mps 712 mmHg 82%
    05:00 +19°C° 0 mm 3 mps 711 mmHg 83%
    06:00 +20°C° 0 mm 4 mps 712 mmHg 80%
    07:00 +20°C° 0 mm 4 mps 712 mmHg 76%
    08:00 +20°C° 0 mm 5 mps 712 mmHg 73%
    09:00 +23°C° 0 mm 4 mps 713 mmHg 64%
    10:00 +26°C° 0 mm 4 mps 713 mmHg 55%
    11:00 +28°C° 0 mm 3 mps 714 mmHg 46%
    12:00 +27°C° 0 mm 5 mps 714 mmHg 48%
    13:00 +24°C° 0 mm 6 mps 714 mmHg 51%
    14:00 +23°C° 0 mm 8 mps 714 mmHg 53%
    15:00 +21°C° 0 mm 8 mps 714 mmHg 52%
    16:00 +18°C° 0 mm 8 mps 715 mmHg 50%
    17:00 +16°C° 0 mm 8 mps 716 mmHg 48%
    18:00 +15°C° 0 mm 7 mps 718 mmHg 42%
    19:00 +14°C° 0 mm 7 mps 719 mmHg 36%
    20:00 +12°C° 0 mm 7 mps 720 mmHg 31%
    21:00 +11°C° 0 mm 7 mps 721 mmHg 29%
    22:00 +11°C° 0 mm 6 mps 721 mmHg 28%
    23:00 +10°C° 0 mm 5 mps 722 mmHg 26%

    Tomorrow, 22 July, Monday

    Time Temperature Precipitation Wind Pressure Humidity
    00:00 +10°C° 0 mm 5 mps 722 mmHg 26%
    01:00 +10°C° 0 mm 5 mps 723 mmHg 26%
    02:00 +9°C° 0 mm 5 mps 723 mmHg 25%
    03:00 +10°C° 0 mm 4 mps 723 mmHg 25%
    04:00 +10°C° 0 mm 4 mps 723 mmHg 25%
    05:00 +9°C° 0 mm 3 mps 724 mmHg 25%
    06:00 +8°C° 0 mm 4 mps 725 mmHg 25%
    07:00 +10°C° 0 mm 4 mps 726 mmHg 24%
    08:00 +10°C° 0 mm 4 mps 726 mmHg 24%
    09:00 +10°C° 0 mm 5 mps 727 mmHg 22%
    10:00 +12°C° 0 mm 5 mps 727 mmHg 21%
    11:00 +13°C° 0 mm 5 mps 727 mmHg 19%
    12:00 +13°C° 0 mm 5 mps 727 mmHg 19%
    13:00 +14°C° 0 mm 5 mps 726 mmHg 18%
    14:00 +15°C° 0 mm 4 mps 726 mmHg 17%
    15:00 +14°C° 0 mm 4 mps 726 mmHg 18%
    16:00 +14°C° 0 mm 4 mps 726 mmHg 20%
    17:00 +13°C° 0 mm 4 mps 726 mmHg 21%
    18:00 +11°C° 0 mm 3 mps 727 mmHg 25%
    19:00 +10°C° 0 mm 3 mps 727 mmHg 30%
    20:00 +8°C° 0 mm 3 mps 727 mmHg 34%
    21:00 +8°C° 0 mm 2 mps 728 mmHg 35%
    22:00 +7°C° 0 mm 2 mps 728 mmHg 37%
    23:00 +7°C° 0 mm 2 mps 729 mmHg 38%

    Day after tomorrow, 23 July, Tuesday

    Time Temperature Precipitation Wind Pressure Humidity
    00:00 +7°C° 0 mm 2 mps 729 mmHg 39%
    01:00 +7°C° 0 mm 2 mps 729 mmHg 39%
    02:00 +6°C° 0 mm 2 mps 729 mmHg 40%
    03:00 +6°C° 0 mm 2 mps 729 mmHg 41%
    04:00 +6°C° 0 mm 2 mps 729 mmHg 42%
    05:00 +5°C° 0 mm 2 mps 729 mmHg 43%
    06:00 +6°C° 0 mm 2 mps 729 mmHg 42%
    07:00 +6°C° 0 mm 2 mps 730 mmHg 42%
    08:00 +6°C° 0 mm 2 mps 730 mmHg 42%
    09:00 +8°C° 0 mm 2 mps 730 mmHg 36%
    10:00 +10°C° 0 mm 3 mps 730 mmHg 31%
    11:00 +12°C° 0 mm 3 mps 731 mmHg 26%
    12:00 +12°C° 0 mm 3 mps 730 mmHg 23%
    13:00 +13°C° 0 mm 3 mps 730 mmHg 21%
    14:00 +14°C° 0 mm 3 mps 729 mmHg 18%
    15:00 +13°C° 0 mm 3 mps 729 mmHg 19%
    16:00 +13°C° 0 mm 3 mps 729 mmHg 20%
    17:00 +13°C° 0 mm 2 mps 729 mmHg 20%
    18:00 +10°C° 0 mm 2 mps 730 mmHg 24%
    19:00 +10°C° 0 mm 1 mps 731 mmHg 28%
    20:00 +8°C° 0 mm 1 mps 731 mmHg 32%
    21:00 +8°C° 0 mm 1 mps 732 mmHg 33%
    22:00 +7°C° 0 mm 1 mps 732 mmHg 34%
    23:00 +7°C° 0 mm 1 mps 732 mmHg 35%

    24 July, Wednesday

    Time Temperature Precipitation Wind Pressure Humidity
    00:00 +7°C° 0 mm 1 mps 732 mmHg 36%
    01:00 +7°C° 0 mm 1 mps 733 mmHg 36%
    02:00 +6°C° 0 mm 1 mps 733 mmHg 37%
    03:00 +6°C° 0 mm 1 mps 733 mmHg 38%
    04:00 +6°C° 0 mm 1 mps 733 mmHg 38%
    05:00 +6°C° 0 mm 1 mps 733 mmHg 39%
    06:00 +6°C° 0 mm 1 mps 733 mmHg 39%
    07:00 +5°C° 0 mm 0 mps 733 mmHg 38%
    08:00 +6°C° 0 mm 0 mps 734 mmHg 38%
    09:00 +9°C° 0 mm 1 mps 734 mmHg 34%
    10:00 +11°C° 0 mm 1 mps 734 mmHg 30%
    11:00 +13°C° 0 mm 2 mps 735 mmHg 26%
    12:00 +14°C° 0 mm 2 mps 734 mmHg 25%
    13:00 +13°C° 0 mm 3 mps 734 mmHg 24%
    14:00 +14°C° 0 mm 3 mps 733 mmHg 23%
    15:00 +14°C° 0 mm 3 mps 733 mmHg 25%
    16:00 +13°C° 0 mm 3 mps 733 mmHg 27%
    17:00 +12°C° 0 mm 3 mps 733 mmHg 29%
    18:00 +11°C° 0 mm 3 mps 733 mmHg 33%
    19:00 +9°C° 0 mm 2 mps 734 mmHg 37%
    20:00 +8°C° 0 mm 2 mps 734 mmHg 40%
    21:00 +7°C° 0 mm 2 mps 734 mmHg 41%
    22:00 +7°C° 0 mm 2 mps 734 mmHg 42%
    23:00 +7°C° 0 mm 1 mps 734 mmHg 43%

    25 July, Thursday

    Time Temperature Precipitation Wind Pressure Humidity
    00:00 +6°C° 0 mm 2 mps 734 mmHg 43%
    01:00 +6°C° 0 mm 2 mps 734 mmHg 43%
    02:00 +6°C° 0 mm 2 mps 735 mmHg 43%
    03:00 +5°C° 0 mm 2 mps 734 mmHg 44%
    04:00 +5°C° 0 mm 2 mps 734 mmHg 45%
    05:00 +6°C° 0 mm 1 mps 734 mmHg 46%
    06:00 +6°C° 0 mm 1 mps 734 mmHg 46%
    07:00 +6°C° 0 mm 1 mps 734 mmHg 46%
    08:00 +6°C° 0 mm 1 mps 734 mmHg 46%
    09:00 +8°C° 0 mm 2 mps 734 mmHg 41%
    10:00 +10°C° 0 mm 3 mps 734 mmHg 37%
    11:00 +12°C° 0 mm 4 mps 734 mmHg 32%
    12:00 +13°C° 0 mm 4 mps 734 mmHg 31%
    13:00 +13°C° 0 mm 5 mps 733 mmHg 30%
    14:00 +14°C° 0 mm 5 mps 732 mmHg 29%
    15:00 +13°C° 0 mm 4 mps 732 mmHg 31%
    16:00 +13°C° 0 mm 4 mps 732 mmHg 33%
    17:00 +12°C° 0 mm 4 mps 731 mmHg 35%
    18:00 +10°C° 0 mm 3 mps 731 mmHg 40%
    19:00 +8°C° 0 mm 3 mps 732 mmHg 45%
    20:00 +7°C° 0 mm 3 mps 732 mmHg 51%
    21:00 +5°C° 0 mm 3 mps 732 mmHg 52%
    22:00 +5°C° 0 mm 3 mps 732 mmHg 54%
    23:00 +4°C° 0 mm 3 mps 732 mmHg 55%

    26 July, Friday

    Time Temperature Precipitation Wind Pressure Humidity
    00:00 +4°C° 0 mm 3 mps 732 mmHg 57%
    01:00 +4°C° 0 mm 3 mps 731 mmHg 58%
    02:00 +4°C° 0 mm 2 mps 731 mmHg 59%
    03:00 +4°C° 0 mm 2 mps 731 mmHg 58%
    04:00 +4°C° 0 mm 2 mps 731 mmHg 58%
    05:00 +4°C° 0 mm 2 mps 730 mmHg 58%
    06:00 +4°C° 0 mm 2 mps 731 mmHg 57%
    07:00 +4°C° 0 mm 2 mps 731 mmHg 57%
    08:00 +4°C° 0 mm 2 mps 731 mmHg 56%
    09:00 +5°C° 0 mm 3 mps 731 mmHg 49%
    10:00 +9°C° 0 mm 3 mps 731 mmHg 42%
    11:00 +11°C° 0 mm 4 mps 732 mmHg 36%
    12:00 +12°C° 0 mm 4 mps 731 mmHg 34%
    13:00 +13°C° 0 mm 4 mps 730 mmHg 32%
    14:00 +14°C° 0 mm 4 mps 730 mmHg 30%
    15:00 +13°C° 0 mm 4 mps 730 mmHg 32%
    16:00 +12°C° 0 mm 4 mps 729 mmHg 33%
    17:00 +12°C° 0 mm 4 mps 729 mmHg 35%
    18:00 +10°C° 0 mm 3 mps 729 mmHg 41%
    19:00 +8°C° 0 mm 3 mps 730 mmHg 47%
    20:00 +7°C° 0 mm 2 mps 730 mmHg 53%
    21:00 +6°C° 0 mm 2 mps 730 mmHg 55%
    22:00 +6°C° 0 mm 2 mps 730 mmHg 56%
    23:00 +6°C° 0 mm 2 mps 731 mmHg 58%
    Show more